STARLINK-31842, 59672

Orbit data source: Space-Track

STARLINK-31842, 59672 is a payload satellite owned by SpaceX/Seattle (US) in LEO that was launched on Mon, 06 May 2024 UTC via an FALCON 9 launch vehicle from the Air Force Eastern Test Range (AFETR). Payload-class satellites include a variety of spacecraft equipped with specific instruments for various scientific and technological missions. These include communications satellites like Starlink; space stations such as the ISS; scientific satellites like the Hubble; Earth observation satellites from companies like Planet Labs, Umbra, and HawkEye 360; GPS; miniature CubeSats for education and research; and military/defense satellites.

Loading next visibility...
Identifier
59672, 2024-084U
Orbit
LEO
Country
Flag of USUS
Related business
Manufacturer
SpaceX/Seattle
Mission
Operational Commercial Communications
Bus & Motor
STARLINK V2M, Unknown motor
Mass
730 kg wet, ~700 kg dry
Launch date (UTC)
2024-05-06 (2 years ago)
Launch vehicle
FALCON 9
Launch site
Air Force Eastern Test Range (AFETR)
Object type
Payload
Rocket body
Debris
Shape & HBR
Box + 2 Pan, 17.7 m
Radar Cross Section
33.884 m², Large (>1 m²)

Expand to show TLE details & history
Last TLE update: 5 hours ago

TLE from 5 hours ago
0 STARLINK-31842
1 59672U 24084U   26073.53840208  .00001046  00000-0  47531-4 0  9990
2 59672  43.0031  11.0438 0000599 333.0372  27.0448 15.27582250105157
Epoch: 2026-03-14T12:55Z
TLE epoch observation values (Epoch: 2026-03-14T12:55:17.939Z)
Latitude
-0.00006°
Longitude
5.06084°
Altitude
482.452 km
Speed
7.626 km/s
True Right ascension
00h 44m 10s
True Declination
0° 00' 00"
Sunlit
Object was in daylight at epoch
Visualization orbit readout
Latitude
Unknown
Longitude
Unknown
Altitude
Unknown
Speed
Unknown
Apparent Right ascension
Unknown
Apparent Declination
Unknown
Sunlit
N/A
Visualization observer readout
Local Sidereal Time
22:38:49
Azimuth
Unknown
Elevation
Unknown
Doppler factor
Unknown
Orbital elements
Apogee altitude
485.398 km
Perigee altitude
484.576 km
Semi-major axis
6,863.124 km
Eccentricity
0.00006
Inclination
43.0031°
RAAN
11.0438°
Arg. of periapsis
333.0372°
True anomaly
27.04792°
Mean anomaly
27.0448°
Eccentric anomaly
27.04636°
Mean motion
3.81734 °/min
Orbital period
94.31 mins
BSTAR
0.000047531
Loading maneuver chart data...
Computing Atmospheric mass density...
Loading historical data...
Loading historical data...
Loading historical data...
Loading historical data...
Loading historical data...
Loading historical data...
Loading historical data...

Documentation

Showing up to 5 results
|